Check out our new BloomSky Weather System.

Active alerts


No alerts


Thunder radar  blitzortung!


Rain radar more information rain snow radar


Visit our other weather sites:

Template documentation
and downloads

And another site



Weather Underground History page Text

Daily Summary for October 17, 2017 Units:  English    Metric   Both
« Previous Day
Next Day »
Daily Weekly Monthly Yearly Custom
  High: Low: Average:
Temperature: TemperatureF °F 52.5 °F 63.4 °F
Dew Point: DewpointF °F 43.2 °F 49 °F
Humidity: Humidity % 31 % 62 %
Wind Speed: WindSpeedMPH mph 0.0 mph 1 mph
Wind Gust: WindSpeedGustMPH mph - -
Wind:- - WSW
Pressure: PressureIn in 30.12 in -
Precipitation: 0.00 in    
Historical Graphs
 
 
Tabular Data for October 17, 2017
Time Temperature Dew Point Pressure Wind Wind Speed Wind Gust Humidity Rainfall Rate (Hourly)
TemperatureF °F DewpointF °F PressureIn in Calm     Humidity % HourlyPrecipIn in
00:04 57.9 °F 49.3 °F 30.24 in Calm   1.0 mph 73 % 0.00 in
00:09 57.7 °F 49.5 °F 30.24 in Calm   1.0 mph 74 % 0.00 in
00:14 57.6 °F 49.3 °F 30.23 in Calm   1.0 mph 74 % 0.00 in
00:20 57.4 °F 49.5 °F 30.23 in Calm   1.0 mph 75 % 0.00 in
00:25 57.4 °F 49.5 °F 30.23 in Calm   1.0 mph 75 % 0.00 in
00:30 57.4 °F 49.5 °F 30.23 in NNW 1.0 mph 1.0 mph 75 % 0.00 in
00:35 57.4 °F 49.5 °F 30.23 in Calm   1.0 mph 75 % 0.00 in
00:40 57.6 °F 49.6 °F 30.23 in Calm   1.0 mph 75 % 0.00 in
00:45 57.6 °F 49.3 °F 30.23 in Calm   2.0 mph 74 % 0.00 in
00:50 57.6 °F 49.3 °F 30.23 in Calm   2.0 mph 74 % 0.00 in
00:55 57.7 °F 49.5 °F 30.23 in North 1.0 mph 2.0 mph 74 % 0.00 in
01:00 57.7 °F 49.5 °F 30.23 in NNW 2.0 mph 2.0 mph 74 % 0.00 in
01:05 57.7 °F 49.1 °F 30.23 in Calm   2.0 mph 73 % 0.00 in
01:10 57.7 °F 49.1 °F 30.23 in Calm   2.0 mph 73 % 0.00 in
01:15 57.7 °F 49.1 °F 30.23 in Calm   2.0 mph 73 % 0.00 in
01:20 57.7 °F 49.1 °F 30.22 in North 1.0 mph 2.0 mph 73 % 0.00 in
01:25 57.9 °F 49.3 °F 30.22 in NNW 1.0 mph 3.0 mph 73 % 0.00 in
01:30 57.9 °F 48.9 °F 30.22 in Calm   4.0 mph 72 % 0.00 in
01:35 58.1 °F 49.1 °F 30.22 in Calm   4.0 mph 72 % 0.00 in
01:40 58.3 °F 49.3 °F 30.22 in Calm   4.0 mph 72 % 0.00 in
01:45 58.3 °F 49.3 °F 30.22 in Calm   4.0 mph 72 % 0.00 in
01:50 58.3 °F 49.3 °F 30.22 in Calm   2.0 mph 72 % 0.00 in
01:55 58.3 °F 49.3 °F 30.22 in NNW 1.0 mph 2.0 mph 72 % 0.00 in
02:00 58.1 °F 49.1 °F 30.23 in Calm   4.0 mph 72 % 0.00 in
02:05 58.3 °F 49.3 °F 30.23 in NNW 2.0 mph 4.0 mph 72 % 0.00 in
02:10 58.3 °F 48.9 °F 30.23 in Calm   4.0 mph 71 % 0.00 in
02:15 58.3 °F 48.9 °F 30.23 in Calm   4.0 mph 71 % 0.00 in
02:20 58.1 °F 49.1 °F 30.23 in ENE 1.0 mph 4.0 mph 72 % 0.00 in
02:25 57.9 °F 48.9 °F 30.23 in Calm   5.0 mph 72 % 0.00 in
02:30 57.9 °F 48.9 °F 30.23 in Calm   5.0 mph 72 % 0.00 in
02:35 57.7 °F 48.7 °F 30.22 in Calm   5.0 mph 72 % 0.00 in
02:40 57.6 °F 48.6 °F 30.23 in Calm   3.0 mph 72 % 0.00 in
02:46 57.6 °F 48.9 °F 30.22 in NNW 1.0 mph 3.0 mph 73 % 0.00 in
02:51 57.4 °F 48.7 °F 30.22 in NE 1.0 mph 3.0 mph 73 % 0.00 in
02:56 57.4 °F 48.7 °F 30.22 in Calm   3.0 mph 73 % 0.00 in
03:01 57.0 °F 48.4 °F 30.22 in Calm   4.0 mph 73 % 0.00 in
03:05 56.8 °F 48.6 °F 30.22 in Calm   4.0 mph 74 % 0.00 in
03:10 56.7 °F 48.4 °F 30.22 in Calm   4.0 mph 74 % 0.00 in
03:15 56.5 °F 48.4 °F 30.22 in Calm   2.0 mph 74 % 0.00 in
03:21 56.5 °F 48.7 °F 30.22 in Calm   2.0 mph 75 % 0.00 in
03:26 56.1 °F 48.4 °F 30.22 in Calm   2.0 mph 75 % 0.00 in
03:31 56.1 °F 48.4 °F 30.22 in ENE 2.0 mph 2.0 mph 75 % 0.00 in
03:36 55.9 °F 48.6 °F 30.22 in Calm   2.0 mph 76 % 0.00 in
03:41 55.9 °F 48.6 °F 30.22 in Calm   3.0 mph 76 % 0.00 in
03:46 55.8 °F 48.4 °F 30.22 in North 1.0 mph 3.0 mph 76 % 0.00 in
03:51 55.6 °F 48.2 °F 30.22 in Calm   3.0 mph 76 % 0.00 in
03:56 55.6 °F 48.6 °F 30.22 in Calm   2.0 mph 77 % 0.00 in
04:01 55.2 °F 48.2 °F 30.22 in Calm   2.0 mph 77 % 0.00 in
04:06 55.0 °F 48.0 °F 30.22 in ENE 1.0 mph 1.0 mph 77 % 0.00 in
04:11 55.0 °F 47.7 °F 30.22 in Calm   2.0 mph 76 % 0.00 in
04:16 55.2 °F 47.8 °F 30.22 in Calm   2.0 mph 76 % 0.00 in
04:21 55.2 °F 47.8 °F 30.22 in Calm   2.0 mph 76 % 0.00 in
04:26 55.0 °F 47.7 °F 30.22 in North 2.0 mph 2.0 mph 76 % 0.00 in
04:31 55.0 °F 47.7 °F 30.22 in Calm   2.0 mph 76 % 0.00 in
04:41 55.0 °F 47.7 °F 30.22 in Calm   2.0 mph 76 % 0.00 in
04:46 55.0 °F 47.7 °F 30.22 in Calm   2.0 mph 76 % 0.00 in
04:51 55.0 °F 48.0 °F 30.22 in NW 1.0 mph 2.0 mph 77 % 0.00 in
04:56 54.7 °F 47.7 °F 30.22 in Calm   2.0 mph 77 % 0.00 in
05:01 54.3 °F 47.7 °F 30.22 in Calm   2.0 mph 78 % 0.00 in
05:06 54.1 °F 47.5 °F 30.22 in Calm   2.0 mph 78 % 0.00 in
05:11 54.0 °F 47.7 °F 30.22 in Calm   2.0 mph 79 % 0.00 in
05:16 53.8 °F 47.5 °F 30.22 in Calm   2.0 mph 79 % 0.00 in
05:21 53.4 °F 47.5 °F 30.22 in Calm   1.0 mph 80 % 0.00 in
05:26 53.2 °F 47.3 °F 30.22 in Calm   1.0 mph 80 % 0.00 in
05:31 53.4 °F 47.5 °F 30.23 in Calm   2.0 mph 80 % 0.00 in
05:36 53.4 °F 47.5 °F 30.23 in NNW 1.0 mph 2.0 mph 80 % 0.00 in
05:41 53.2 °F 47.3 °F 30.23 in Calm   2.0 mph 80 % 0.00 in
05:46 53.2 °F 47.3 °F 30.23 in Calm   2.0 mph 80 % 0.00 in
05:51 53.4 °F 47.5 °F 30.23 in Calm   2.0 mph 80 % 0.00 in
05:56 53.4 °F 47.1 °F 30.23 in NNW 1.0 mph 2.0 mph 79 % 0.00 in
06:01 53.6 °F 47.3 °F 30.23 in NNW 1.0 mph 3.0 mph 79 % 0.00 in
06:06 53.8 °F 47.5 °F 30.23 in North 1.0 mph 3.0 mph 79 % 0.00 in
06:11 53.8 °F 47.1 °F 30.23 in Calm   3.0 mph 78 % 0.00 in
06:16 53.8 °F 47.1 °F 30.23 in Calm   3.0 mph 78 % 0.00 in
06:21 53.8 °F 47.1 °F 30.24 in Calm   2.0 mph 78 % 0.00 in
06:26 53.8 °F 47.1 °F 30.24 in Calm   2.0 mph 78 % 0.00 in
06:31 53.6 °F 47.3 °F 30.24 in Calm   1.0 mph 79 % 0.00 in
06:36 53.4 °F 47.1 °F 30.24 in North 1.0 mph 3.0 mph 79 % 0.00 in
06:41 53.4 °F 47.1 °F 30.24 in Calm   3.0 mph 79 % 0.00 in
06:46 53.4 °F 47.1 °F 30.24 in NW 1.0 mph 3.0 mph 79 % 0.00 in
06:51 53.4 °F 47.1 °F 30.25 in NNW 2.0 mph 2.0 mph 79 % 0.00 in
06:56 53.4 °F 47.1 °F 30.25 in Calm   2.0 mph 79 % 0.00 in
07:01 53.2 °F 46.9 °F 30.25 in NW 1.0 mph 3.0 mph 79 % 0.00 in
07:06 53.1 °F 47.1 °F 30.25 in Calm   3.0 mph 80 % 0.00 in
07:11 52.9 °F 46.9 °F 30.25 in NW 1.0 mph 3.0 mph 80 % 0.00 in
07:16 52.9 °F 47.3 °F 30.25 in Calm   3.0 mph 81 % 0.00 in
07:21 52.7 °F 47.1 °F 30.25 in NW 1.0 mph 2.0 mph 81 % 0.00 in
07:26 52.7 °F 47.1 °F 30.25 in Calm   3.0 mph 81 % 0.00 in
07:31 52.5 °F 46.9 °F 30.25 in Calm   3.0 mph 81 % 0.00 in
07:36 52.5 °F 47.1 °F 30.25 in WNW 1.0 mph 3.0 mph 82 % 0.00 in
07:41 52.5 °F 47.1 °F 30.25 in NNW 1.0 mph 2.0 mph 82 % 0.00 in
07:46 52.5 °F 47.1 °F 30.25 in Calm   2.0 mph 82 % 0.00 in
07:51 52.7 °F 47.1 °F 30.25 in NNW 1.0 mph 2.0 mph 81 % 0.00 in
07:56 52.9 °F 47.3 °F 30.25 in North 1.0 mph 2.0 mph 81 % 0.00 in
08:01 52.9 °F 47.3 °F 30.25 in Calm   2.0 mph 81 % 0.00 in
08:06 53.2 °F 47.5 °F 30.25 in Calm   2.0 mph 81 % 0.00 in
08:11 53.6 °F 47.7 °F 30.26 in NW 1.0 mph 2.0 mph 80 % 0.00 in
08:16 54.1 °F 47.8 °F 30.26 in NW 1.0 mph 2.0 mph 79 % 0.00 in
08:21 54.7 °F 48.0 °F 30.26 in NNW 1.0 mph 4.0 mph 78 % 0.00 in
08:26 55.6 °F 48.2 °F 30.26 in NNW 2.0 mph 4.0 mph 76 % 0.00 in
08:31 56.5 °F 48.0 °F 30.26 in WSW 1.0 mph 5.0 mph 73 % 0.00 in
08:36 57.4 °F 48.4 °F 30.26 in NW 3.0 mph 5.0 mph 72 % 0.00 in
08:41 58.1 °F 49.1 °F 30.27 in Calm   6.0 mph 72 % 0.00 in
08:47 58.8 °F 49.1 °F 30.27 in NW 2.0 mph 6.0 mph 70 % 0.00 in
08:52 59.5 °F 49.3 °F 30.27 in NNW 1.0 mph 6.0 mph 69 % 0.00 in
08:57 60.3 °F 49.6 °F 30.27 in NW 3.0 mph 5.0 mph 68 % 0.00 in
09:02 61.0 °F 49.5 °F 30.28 in NW 1.0 mph 5.0 mph 66 % 0.00 in
09:07 61.3 °F 48.6 °F 30.28 in East 2.0 mph 5.0 mph 63 % 0.00 in
09:12 61.5 °F 48.7 °F 30.28 in Calm   6.0 mph 63 % 0.00 in
09:17 61.5 °F 48.7 °F 30.28 in North 2.0 mph 6.0 mph 63 % 0.00 in
09:22 61.9 °F 49.1 °F 30.28 in North 5.0 mph 6.0 mph 63 % 0.00 in
09:27 62.1 °F 49.3 °F 30.28 in Calm   6.0 mph 63 % 0.00 in
09:32 62.2 °F 49.1 °F 30.28 in NNE 2.0 mph 7.0 mph 62 % 0.00 in
09:37 62.4 °F 49.3 °F 30.28 in ENE 2.0 mph 7.0 mph 62 % 0.00 in
09:42 63.0 °F 49.3 °F 30.28 in NW 3.0 mph 8.0 mph 61 % 0.00 in
09:47 63.3 °F 50.5 °F 30.28 in NE 6.0 mph 8.0 mph 63 % 0.00 in
09:52 63.3 °F 49.6 °F 30.28 in ENE 1.0 mph 8.0 mph 61 % 0.00 in
09:57 63.9 °F 50.5 °F 30.28 in North 1.0 mph 8.0 mph 62 % 0.00 in
10:02 64.4 °F 50.7 °F 30.28 in NNW 2.0 mph 8.0 mph 61 % 0.00 in
10:07 64.2 °F 50.0 °F 30.28 in NNE 2.0 mph 6.0 mph 60 % 0.00 in
10:12 64.6 °F 50.4 °F 30.27 in NW 1.0 mph 7.0 mph 60 % 0.00 in
10:17 64.9 °F 50.2 °F 30.28 in North 2.0 mph 7.0 mph 59 % 0.00 in
10:22 64.9 °F 50.7 °F 30.27 in East 2.0 mph 7.0 mph 60 % 0.00 in
10:27 65.5 °F 50.4 °F 30.27 in East 2.0 mph 7.0 mph 58 % 0.00 in
10:32 65.5 °F 50.7 °F 30.27 in NNW 1.0 mph 7.0 mph 59 % 0.00 in
10:37 65.8 °F 50.7 °F 30.27 in ENE 2.0 mph 7.0 mph 58 % 0.00 in
10:41 66.0 °F 50.4 °F 30.27 in SE 1.0 mph 7.0 mph 57 % 0.00 in
10:47 66.4 °F 50.7 °F 30.27 in WSW 3.0 mph 7.0 mph 57 % 0.00 in
10:52 66.4 °F 50.2 °F 30.27 in ENE 1.0 mph 7.0 mph 56 % 0.00 in
10:57 66.4 °F 50.7 °F 30.27 in NNW 1.0 mph 10.0 mph 57 % 0.00 in
11:02 66.7 °F 51.1 °F 30.27 in ENE 4.0 mph 10.0 mph 57 % 0.00 in
11:07 66.7 °F 50.5 °F 30.27 in East 3.0 mph 10.0 mph 56 % 0.00 in
11:12 67.5 °F 50.7 °F 30.27 in Calm   7.0 mph 55 % 0.00 in
11:17 68.2 °F 50.4 °F 30.26 in East 2.0 mph 7.0 mph 53 % 0.00 in
11:22 68.4 °F 49.5 °F 30.26 in NNW 2.0 mph 6.0 mph 51 % 0.00 in
11:27 68.5 °F 50.7 °F 30.26 in Calm   5.0 mph 53 % 0.00 in
11:32 68.7 °F 51.4 °F 30.26 in SSE 1.0 mph 7.0 mph 54 % 0.00 in
11:37 69.4 °F 50.0 °F 30.26 in WNW 2.0 mph 7.0 mph 50 % 0.00 in
11:42 68.9 °F 50.0 °F 30.26 in Calm   7.0 mph 51 % 0.00 in
11:47 69.4 °F 51.6 °F 30.25 in WSW 1.0 mph 7.0 mph 53 % 0.00 in
11:52 69.6 °F 50.2 °F 30.25 in NW 2.0 mph 7.0 mph 50 % 0.00 in
11:57 69.8 °F 50.4 °F 30.25 in East 2.0 mph 5.0 mph 50 % 0.00 in
12:02 70.2 °F 51.3 °F 30.25 in NNW 1.0 mph 6.0 mph 51 % 0.00 in
12:07 70.5 °F 50.4 °F 30.25 in NNW 5.0 mph 6.0 mph 49 % 0.00 in
12:12 70.5 °F 49.8 °F 30.24 in NW 3.0 mph 7.0 mph 48 % 0.00 in
12:17 70.9 °F 51.3 °F 30.24 in Calm   7.0 mph 50 % 0.00 in
12:22 71.6 °F 50.4 °F 30.24 in ENE 2.0 mph 7.0 mph 47 % 0.00 in
12:27 72.0 °F 51.8 °F 30.24 in NW 2.0 mph 8.0 mph 49 % 0.00 in
12:32 72.1 °F 52.0 °F 30.23 in NW 3.0 mph 8.0 mph 49 % 0.00 in
12:37 71.8 °F 48.7 °F 30.23 in WNW 4.0 mph 9.0 mph 44 % 0.00 in
12:42 71.4 °F 49.6 °F 30.23 in NW 5.0 mph 9.0 mph 46 % 0.00 in
12:47 71.6 °F 50.4 °F 30.22 in NNW 4.0 mph 9.0 mph 47 % 0.00 in
12:52 71.8 °F 49.8 °F 30.22 in NW 3.0 mph 7.0 mph 46 % 0.00 in
12:57 71.8 °F 51.1 °F 30.22 in NW 2.0 mph 9.0 mph 48 % 0.00 in
13:02 72.3 °F 49.1 °F 30.22 in North 3.0 mph 9.0 mph 44 % 0.00 in
13:07 72.3 °F 49.1 °F 30.22 in NNW 4.0 mph 9.0 mph 44 % 0.00 in
13:12 72.7 °F 50.2 °F 30.21 in NW 3.0 mph 8.0 mph 45 % 0.00 in
13:17 73.2 °F 50.0 °F 30.21 in NW 2.0 mph 8.0 mph 44 % 0.00 in
13:22 73.4 °F 50.7 °F 30.20 in North 2.0 mph 8.0 mph 45 % 0.00 in
13:27 73.6 °F 49.6 °F 30.20 in NNW 4.0 mph 8.0 mph 43 % 0.00 in
13:32 73.4 °F 50.2 °F 30.20 in WNW 4.0 mph 9.0 mph 44 % 0.00 in
13:37 73.9 °F 50.0 °F 30.20 in NW 4.0 mph 9.0 mph 43 % 0.00 in
13:42 73.8 °F 48.6 °F 30.20 in NNW 3.0 mph 9.0 mph 41 % 0.00 in
13:47 73.8 °F 49.8 °F 30.19 in NW 2.0 mph 7.0 mph 43 % 0.00 in
13:52 74.5 °F 49.8 °F 30.19 in East 1.0 mph 7.0 mph 42 % 0.00 in
13:57 75.4 °F 52.0 °F 30.18 in Calm   7.0 mph 44 % 0.00 in
14:02 75.6 °F 48.9 °F 30.18 in WNW 6.0 mph 6.0 mph 39 % 0.00 in
14:07 75.0 °F 49.6 °F 30.18 in West 3.0 mph 9.0 mph 41 % 0.00 in
14:12 75.4 °F 48.7 °F 30.17 in NW 3.0 mph 9.0 mph 39 % 0.00 in
14:17 75.4 °F 49.5 °F 30.17 in WNW 4.0 mph 9.0 mph 40 % 0.00 in
14:22 75.7 °F 49.6 °F 30.17 in NNW 2.0 mph 7.0 mph 40 % 0.00 in
14:27 76.1 °F 49.3 °F 30.17 in NW 2.0 mph 7.0 mph 39 % 0.00 in
14:32 76.1 °F 48.6 °F 30.16 in North 4.0 mph 8.0 mph 38 % 0.00 in
14:37 76.1 °F 48.0 °F 30.16 in WNW 5.0 mph 8.0 mph 37 % 0.00 in
14:42 75.9 °F 49.8 °F 30.16 in North 2.0 mph 8.0 mph 40 % 0.00 in
14:47 76.8 °F 50.0 °F 30.15 in North 1.0 mph 8.0 mph 39 % 0.00 in
14:52 77.2 °F 48.9 °F 30.15 in Calm   8.0 mph 37 % 0.00 in
14:57 77.2 °F 48.9 °F 30.15 in West 6.0 mph 6.0 mph 37 % 0.00 in
15:02 77.0 °F 49.5 °F 30.15 in NW 6.0 mph 9.0 mph 38 % 0.00 in
15:07 77.2 °F 48.2 °F 30.15 in WNW 1.0 mph 9.0 mph 36 % 0.00 in
15:12 77.4 °F 49.1 °F 30.15 in ENE 4.0 mph 9.0 mph 37 % 0.00 in
15:17 77.5 °F 49.3 °F 30.14 in North 1.0 mph 8.0 mph 37 % 0.00 in
15:22 77.2 °F 48.9 °F 30.14 in NNW 2.0 mph 7.0 mph 37 % 0.00 in
15:27 77.2 °F 48.9 °F 30.14 in NNW 5.0 mph 6.0 mph 37 % 0.00 in
15:32 77.5 °F 48.6 °F 30.14 in NNW 3.0 mph 6.0 mph 36 % 0.00 in
15:38 77.5 °F 48.6 °F 30.14 in WNW 2.0 mph 6.0 mph 36 % 0.00 in
15:43 77.2 °F 49.6 °F 30.14 in NE 1.0 mph 6.0 mph 38 % 0.00 in
15:48 77.5 °F 49.3 °F 30.14 in NW 3.0 mph 6.0 mph 37 % 0.00 in
15:53 77.9 °F 48.7 °F 30.13 in NW 3.0 mph 6.0 mph 36 % 0.00 in
15:58 77.5 °F 48.6 °F 30.13 in NW 3.0 mph 7.0 mph 36 % 0.00 in
16:03 77.5 °F 49.3 °F 30.13 in NW 1.0 mph 7.0 mph 37 % 0.00 in
16:08 77.4 °F 48.4 °F 30.13 in WNW 4.0 mph 8.0 mph 36 % 0.00 in
16:13 77.5 °F 49.3 °F 30.13 in NE 1.0 mph 8.0 mph 37 % 0.00 in
16:18 77.5 °F 49.3 °F 30.13 in Calm   8.0 mph 37 % 0.00 in
16:23 77.9 °F 48.7 °F 30.13 in NNW 6.0 mph 7.0 mph 36 % 0.00 in
16:28 77.7 °F 47.8 °F 30.13 in Calm   8.0 mph 35 % 0.00 in
16:33 77.7 °F 47.1 °F 30.13 in NW 2.0 mph 8.0 mph 34 % 0.00 in
16:38 77.7 °F 46.4 °F 30.13 in WNW 2.0 mph 8.0 mph 33 % 0.00 in
16:43 77.7 °F 46.4 °F 30.13 in Calm   6.0 mph 33 % 0.00 in
16:48 78.3 °F 47.7 °F 30.12 in Calm   8.0 mph 34 % 0.00 in
16:53 78.6 °F 48.7 °F 30.13 in NNE 2.0 mph 8.0 mph 35 % 0.00 in
16:58 78.3 °F 48.4 °F 30.13 in Calm   8.0 mph 35 % 0.00 in
17:03 77.9 °F 48.0 °F 30.13 in NNW 1.0 mph 5.0 mph 35 % 0.00 in
17:08 77.7 °F 47.8 °F 30.13 in SW 1.0 mph 5.0 mph 35 % 0.00 in
17:13 77.7 °F 47.8 °F 30.12 in ENE 1.0 mph 5.0 mph 35 % 0.00 in
17:18 77.5 °F 47.7 °F 30.12 in ENE 2.0 mph 5.0 mph 35 % 0.00 in
17:23 77.2 °F 47.5 °F 30.12 in NW 3.0 mph 5.0 mph 35 % 0.00 in
17:28 77.0 °F 47.3 °F 30.12 in NNW 2.0 mph 5.0 mph 35 % 0.00 in
17:33 76.6 °F 45.3 °F 30.12 in NNE 2.0 mph 5.0 mph 33 % 0.00 in
17:38 76.3 °F 43.3 °F 30.12 in NW 4.0 mph 8.0 mph 31 % 0.00 in
17:43 75.9 °F 43.2 °F 30.12 in WNW 2.0 mph 8.0 mph 31 % 0.00 in
17:48 75.7 °F 44.6 °F 30.12 in NNW 3.0 mph 8.0 mph 33 % 0.00 in
17:53 75.4 °F 45.9 °F 30.12 in NE 1.0 mph 7.0 mph 35 % 0.00 in
17:58 75.0 °F 45.5 °F 30.12 in Calm   7.0 mph 35 % 0.00 in
18:04 74.8 °F 45.3 °F 30.12 in NNW 1.0 mph 7.0 mph 35 % 0.00 in
18:09 74.5 °F 45.0 °F 30.12 in NNW 1.0 mph 5.0 mph 35 % 0.00 in
18:14 74.1 °F 46.2 °F 30.12 in Calm   4.0 mph 37 % 0.00 in
18:19 73.8 °F 46.6 °F 30.12 in Calm   4.0 mph 38 % 0.00 in
18:24 73.2 °F 46.8 °F 30.12 in North 1.0 mph 4.0 mph 39 % 0.00 in
18:29 73.0 °F 48.0 °F 30.12 in North 1.0 mph 4.0 mph 41 % 0.00 in
18:34 72.5 °F 48.0 °F 30.12 in North 2.0 mph 4.0 mph 42 % 0.00 in
18:39 72.0 °F 48.2 °F 30.12 in Calm   4.0 mph 43 % 0.00 in
18:44 71.4 °F 47.8 °F 30.12 in Calm   4.0 mph 43 % 0.00 in
18:49 71.1 °F 48.6 °F 30.12 in Calm   4.0 mph 45 % 0.00 in
18:54 70.5 °F 48.7 °F 30.13 in Calm   2.0 mph 46 % 0.00 in
18:59 70.0 °F 48.7 °F 30.13 in Calm   2.0 mph 47 % 0.00 in
19:04 69.4 °F 48.9 °F 30.13 in Calm   1.0 mph 48 % 0.00 in
19:09 69.1 °F 49.1 °F 30.13 in Calm   1.0 mph 49 % 0.00 in
19:14 68.5 °F 49.6 °F 30.13 in Calm   1.0 mph 51 % 0.00 in
19:19 68.2 °F 49.3 °F 30.14 in Calm   1.0 mph 51 % 0.00 in
19:24 67.6 °F 49.5 °F 30.14 in Calm   1.0 mph 52 % 0.00 in
19:29 67.3 °F 49.6 °F 30.14 in Calm   1.0 mph 53 % 0.00 in
19:34 66.9 °F 49.8 °F 30.14 in Calm   1.0 mph 54 % 0.00 in
19:39 66.6 °F 49.8 °F 30.14 in Calm   1.0 mph 55 % 0.00 in
19:44 65.8 °F 49.6 °F 30.14 in Calm   1.0 mph 56 % 0.00 in
19:49 65.5 °F 50.4 °F 30.14 in Calm   1.0 mph 58 % 0.00 in
19:54 65.1 °F 50.0 °F 30.14 in Calm   1.0 mph 58 % 0.00 in
19:59 64.8 °F 50.2 °F 30.14 in Calm   1.0 mph 59 % 0.00 in
20:04 64.6 °F 50.4 °F 30.14 in Calm   1.0 mph 60 % 0.00 in
20:09 64.2 °F 50.5 °F 30.14 in Calm   1.0 mph 61 % 0.00 in
20:14 63.9 °F 50.5 °F 30.14 in Calm   1.0 mph 62 % 0.00 in
20:19 63.5 °F 50.7 °F 30.15 in Calm   1.0 mph 63 % 0.00 in
20:24 63.1 °F 50.7 °F 30.15 in Calm   1.0 mph 64 % 0.00 in
20:29 62.8 °F 50.9 °F 30.15 in Calm     65 % 0.00 in
20:34 62.8 °F 51.3 °F 30.15 in Calm   1.0 mph 66 % 0.00 in
20:39 62.6 °F 51.1 °F 30.16 in Calm   1.0 mph 66 % 0.00 in
20:44 62.2 °F 50.7 °F 30.16 in Calm   1.0 mph 66 % 0.00 in
20:49 61.9 °F 51.3 °F 30.16 in Calm     68 % 0.00 in
20:54 61.9 °F 51.6 °F 30.16 in Calm     69 % 0.00 in
20:59 61.9 °F 51.3 °F 30.16 in Calm     68 % 0.00 in
21:04 61.3 °F 51.1 °F 30.16 in Calm     69 % 0.00 in
21:09 61.2 °F 50.9 °F 30.17 in Calm     69 % 0.00 in
21:14 60.6 °F 51.1 °F 30.17 in Calm     71 % 0.00 in
21:19 60.4 °F 51.4 °F 30.17 in Calm     72 % 0.00 in
21:24 60.6 °F 51.6 °F 30.17 in Calm     72 % 0.00 in
21:29 60.6 °F 51.1 °F 30.17 in Calm     71 % 0.00 in
21:34 60.4 °F 51.4 °F 30.17 in Calm     72 % 0.00 in
21:39 60.1 °F 51.4 °F 30.17 in Calm     73 % 0.00 in
21:44 59.9 °F 51.6 °F 30.17 in Calm     74 % 0.00 in
21:49 59.7 °F 51.4 °F 30.17 in Calm     74 % 0.00 in
21:54 59.5 °F 51.6 °F 30.17 in Calm     75 % 0.00 in
22:05 59.2 °F 51.3 °F 30.17 in Calm     75 % 0.00 in
22:10 58.8 °F 51.3 °F 30.17 in Calm     76 % 0.00 in
22:16 58.6 °F 51.4 °F 30.17 in Calm     77 % 0.00 in
22:22 58.3 °F 51.4 °F 30.17 in Calm     78 % 0.00 in
22:23 58.3 °F 51.8 °F 30.17 in Calm     79 % 0.00 in
22:25 58.5 °F 52.0 °F 30.17 in Calm   1.0 mph 79 % 0.00 in
22:27 58.5 °F 52.0 °F 30.17 in Calm   1.0 mph 79 % 0.00 in
22:28 58.5 °F 52.3 °F 30.17 in Calm   1.0 mph 80 % 0.00 in
22:32 58.6 °F 52.2 °F 30.17 in Calm   1.0 mph 79 % 0.00 in
22:37 58.5 °F 52.0 °F 30.17 in Calm   1.0 mph 79 % 0.00 in
22:40 58.3 °F 52.2 °F 30.17 in Calm   1.0 mph 80 % 0.00 in
22:45 57.9 °F 51.8 °F 30.17 in Calm     80 % 0.00 in
22:50 57.6 °F 51.4 °F 30.17 in Calm     80 % 0.00 in
22:55 57.0 °F 51.3 °F 30.17 in Calm     81 % 0.00 in
23:00 56.8 °F 51.4 °F 30.17 in Calm     82 % 0.00 in
23:05 56.8 °F 51.8 °F 30.17 in Calm     83 % 0.00 in
23:10 56.8 °F 52.0 °F 30.17 in Calm     84 % 0.00 in
23:15 56.8 °F 51.8 °F 30.17 in Calm     83 % 0.00 in
23:20 56.7 °F 51.8 °F 30.17 in Calm     84 % 0.00 in
23:25 56.7 °F 51.8 °F 30.17 in Calm     84 % 0.00 in
23:30 56.5 °F 51.6 °F 30.17 in Calm     84 % 0.00 in
23:35 56.1 °F 51.6 °F 30.17 in Calm     85 % 0.00 in
23:40 55.9 °F 51.4 °F 30.16 in Calm     85 % 0.00 in
23:45 55.9 °F 51.8 °F 30.17 in Calm     86 % 0.00 in
23:50 55.8 °F 51.6 °F 30.16 in Calm     86 % 0.00 in
23:55 55.4 °F 51.3 °F 30.16 in Calm     86 % 0.00 in
Spring, Texas: Villages of Bridgestone
Compliments of Weather Underground - 3.25 mb

Script developed by  Jim McMurry - jmcmurry@mwt.net Adapted for the template by  Wim van der Kuil - Leuven-Template.eu

You find our weather info also at:

UK Metoffice

WeatherCloud

Weather Underground

Mid-South Weather Network

AWEKAS

Citizen Weather Observer Program (CWOP)

HAMweather, WeatherForYou, PWS Weather

Equipment we use:

Weather-station
Davis Vantage Vue

Weather-program
Meteohub

Weather-server
Debian 7.9 x86 (Guest)

Provider
DreamHost

Davis Vantage Vue

Meteohub

Debian 7.9 x86 (Guest)

DreamHost